Location: Ickleton
(52.0667°N, 0.1833°E)
Time: 07:12:56
(UTC+00:00)

Daily predictions for brighter satellites

Satellite Brightness Start Highest point End
(mag) Time Altitude Azimuth Time Altitude Azimuth Time Altitude Azimuth
Cosmos 1500 Rocket 3.7 20:11:26 10° SSW 20:15:44 81° W 20:20:06 10° N
Spot 2 Rocket 4.0 20:12:24 10° SE 20:17:14 45° ENE 20:22:06 10° N
Cosmos 2322 Rocket 4.0 20:13:44 10° NNW 20:18:05 22° NE 20:22:25 10° E
Meteor 1-4 Rocket 3.4 20:15:51 10° N 20:19:02 32° ENE 20:22:11 10° SE
Ariane Rocket 4.5 20:14:51 10° SSW 20:19:32 37° W 20:24:14 10° NNW
USA 186 4.2 20:19:44 10° WSW 20:20:47 12° W 20:21:49 10° WNW
Resurs 1-3 4.0 20:16:29 10° S 20:20:51 68° WSW 20:25:15 10° NNW
CZ-2C R/B 2.8 20:17:58 10° NNE 20:23:10 80° WNW 20:28:21 10° SSW
Terra 3.4 20:21:50 10° ESE 20:25:24 21° ENE 20:28:59 10° N
Cosmos 407 Rocket 4.0 20:21:00 10° S 20:25:56 40° ESE 20:30:51 10° NE
USA 234 3.3 20:19:27 10° ESE 20:26:02 89° SW 20:32:37 10° WNW
Cosmos 1666 Rocket 4.2 20:23:14 10° SSE 20:27:11 36° E 20:31:10 10° NNE
Cosmos 1238 Rocket 4.4 20:28:34 10° E 20:29:12 10° E 20:29:50 10° ENE
Meteor 1-27 Rocket 3.9 20:23:49 10° N 20:29:44 75° ENE 20:35:41 10° SSE
Cosmos 2360 Rocket 4.2 20:28:08 10° NNW 20:32:01 18° NNE 20:35:54 10° ENE
MetOp-B 4.2 20:26:50 10° SSE 20:32:11 74° ENE 20:37:33 10° NNW
BREEZE-M DEB (TANK) 4.3 20:31:41 10° W 20:35:35 17° WSW 20:37:56 10° SSW
ERBS 2.4 20:33:30 10° WSW 20:36:50 76° NNW 20:40:09 10° ENE
Cosmos 1805 Rocket 3.6 20:34:25 10° S 20:38:51 88° E 20:43:21 10° N
SPOT 5 3.7 20:35:54 11° SE 20:39:32 31° ENE 20:43:24 10° N
Cosmos 1980 Rocket 2.3 20:36:10 10° NNW 20:41:53 68° NE 20:47:05 12° SE
SPOT 1/Viking Rocket 3.7 20:39:56 10° SSE 20:45:04 62° ENE 20:50:15 10° N
Genesis I 3.2 20:43:39 10° NW 20:47:33 74° NE 20:50:44 15° SE
SL-4 R/B 2.9 20:44:25 10° SSW 20:47:35 24° SSE 20:50:36 10° E
BREEZE-M DEB (TANK) 2.6 20:45:39 10° WSW 20:48:16 51° SSE 20:54:33 10° E
ATLAS 5 CENTAUR R/B 3.5 20:45:09 10° WNW 20:50:19 36° WSW 20:56:13 10° S
Cosmos 405 Rocket 4.3 20:49:21 14° ESE 20:50:59 18° E 20:53:33 10° NE
Cosmos 1140 Rocket 3.7 20:46:30 10° S 20:51:32 49° ESE 20:56:36 10° NNE
Cosmos 389 Rocket 4.1 20:50:17 10° NNW 20:53:25 33° W 20:56:32 10° SSW
Cosmos 1812 3.9 20:52:51 10° NNW 20:56:29 41° W 21:00:06 10° SSW
Cosmos 1697 Rocket 3.1 20:52:02 10° NW 20:57:34 59° WSW 21:03:03 10° SSE
USA 32 4.4 20:53:02 10° SSE 20:58:01 47° E 21:03:01 10° NNE
Cosmos 1633 Rocket 3.1 20:56:01 10° S 21:00:24 64° E 21:04:48 10° NNE
Cosmos 1833 Rocket 2.6 20:54:57 10° SSW 21:00:32 73° ESE 21:06:11 10° NNE
Okean 1-7 4.2 21:02:07 10° N 21:05:57 29° ENE 21:08:30 17° ESE
Cosmos 1867 4.1 21:01:52 10° S 21:06:50 37° ESE 21:11:50 10° NE
CENTAUR R/B 3.8 21:04:46 15° SE 21:07:25 20° ESE 21:12:07 10° ENE
Cosmos 1707 Rocket 4.2 21:03:48 10° NNW 21:08:03 53° W 21:12:16 10° S
Resurs 01 Rocket 3.1 21:06:59 10° SSW 21:11:00 34° W 21:15:05 10° NNW
FALCON 9 DEB 4.1 21:10:23 10° SSW 21:13:21 26° SE 21:15:22 16° E
Landsat 7 4.1 21:08:59 11° S 21:13:38 68° WSW 21:18:23 10° NNW
Cosmos 1441 Rocket 4.4 21:11:27 10° SW 21:15:06 43° WNW 21:18:43 10° N
deb Kosmos-1763 4.1 21:14:16 10° S 21:17:46 54° ESE 21:21:22 10° NNE
Cosmos 44 4.4 21:14:30 10° NW 21:18:59 38° NE 21:23:09 13° E
Cosmos 192 4.4 21:14:26 10° NNW 21:19:21 82° WSW 21:22:57 19° SSE
ATLAS 5 CENTAUR R/B 2.6 21:17:36 10° NW 21:19:44 34° NE 21:23:25 12° E
Cosmos 676 Rocket 4.2 21:15:14 10° S 21:20:24 55° ESE 21:25:38 10° NNE
IGS 5A 4.1 21:17:35 11° S 21:21:26 52° W 21:25:31 10° NNW
Meteor 1-25 Rocket 4.3 21:17:53 12° S 21:22:54 59° E 21:28:25 10° NNE
Cosmos 1470 Rocket 3.6 21:19:31 15° S 21:23:07 62° E 21:27:28 10° NNE
Cosmos 1934 Rocket 4.1 21:18:50 10° S 21:25:13 85° W 21:31:39 10° N
Aureole 1 Rocket 4.4 21:19:26 10° SSW 21:26:20 73° ESE 21:34:40 10° NNE
GP-B 3.3 21:22:02 10° N 21:26:29 74° W 21:30:41 11° S
SWAS 4.5 21:23:44 10° SSW 21:28:03 87° WNW 21:32:25 10° NNE
USA 267 3.2 21:25:24 10° ENE 21:31:59 79° SSE 21:38:32 10° WSW
Cosmos 921 Rocket 2.9 21:28:06 10° NNW 21:32:22 84° WSW 21:34:51 24° SSE
NOSS 3-2 (A) 3.7 21:27:24 10° SSW 21:32:48 44° ESE 21:38:58 10° NE
Cosmos 1862 Rocket 4.1 21:30:13 10° NNW 21:34:38 57° W 21:38:11 15° S
Cosmos 841 Rocket 4.3 21:33:53 10° NNW 21:38:51 42° NE 21:42:00 21° ESE
NOSS 3-2 (C) 4.1 21:35:51 20° SSE 21:38:55 32° ESE 21:44:32 10° NE
COSMOS 2406 4.2 21:33:31 10° SW 21:39:07 51° NW 21:44:44 10° NNE
ERS-1 Rocket 3.1 21:36:08 18° S 21:39:51 72° WSW 21:44:54 10° NNW
SAR-Lupe-2 3.5 21:36:25 10° NNE 21:40:00 68° ESE 21:41:55 25° S
Cosmos 540 Rocket 4.3 21:35:23 10° NNW 21:40:18 41° NE 21:43:22 21° ESE
OPS 6432 4.4 21:36:35 10° SSW 21:40:30 63° SE 21:43:37 10° NE
SL-16 R/B 2.4 21:35:05 10° NNW 21:40:45 62° NE 21:44:17 23° SE
Lacrosse 5 1.8 21:37:10 10° WNW 21:42:17 88° NNE 21:45:32 23° ESE
Cosmos 468 Rocket 4.0 21:37:15 10° NNW 21:42:37 82° ENE 21:45:45 25° SSE
Cosmos 1570 Rocket 4.5 21:45:01 10° NNW 21:50:13 52° ENE 21:53:10 25° SE
Cosmos 2219 Rocket 4.1 21:46:53 10° NNW 21:51:20 23° NE 21:55:46 10° E
Cosmos 1954 Rocket 4.0 21:48:24 10° SSW 21:53:43 87° WNW 21:59:06 10° NNE
Cosmos 2082 Rocket 2.3 21:48:05 10° SW 21:53:49 80° WNW 21:59:31 10° NNE
Cosmos 1184 Rocket 3.9 21:53:55 13° SW 21:56:39 43° WNW 21:59:50 10° N
CARTOSAT-1 4.4 21:57:12 19° SSW 21:59:59 44° W 22:04:09 10° NNW
Terra 2.0 22:00:02 26° S 22:02:44 68° WSW 22:07:30 10° NNW
Cosmos 2322 Rocket 2.3 21:57:26 10° NNW 22:03:09 73° ENE 22:06:13 28° SE
Cosmos 1933 Rocket 3.7 22:01:23 20° SSW 22:04:21 76° WNW 22:08:49 10° N
Okean 1 3.9 22:01:10 10° NNW 22:05:06 54° W 22:07:06 26° SSW
Cosmos 1238 Rocket 3.2 22:06:53 23° SW 22:08:24 41° WNW 22:11:14 10° N
Cosmos 1602 3.9 22:06:47 25° SSW 22:08:58 70° WNW 22:12:55 10° N
Cosmos 2100 Rocket 4.1 22:05:35 27° SSE 22:08:59 61° E 22:15:02 10° NNE
Cosmos 1437 Rocket 2.8 22:05:41 10° NNW 22:09:30 67° W 22:10:50 37° S
USA 234 4.0 22:06:06 23° S 22:09:32 38° SW 22:15:33 10° WNW
Cosmos 1242 Rocket 4.2 22:08:29 10° NNE 22:11:21 22° ENE 22:12:07 20° E
Cosmos 1605 Rocket 4.4 22:06:02 10° SSW 22:12:07 61° WNW 22:18:09 10° N
ERBS 3.9 22:10:22 10° WNW 22:13:27 34° N 22:16:31 10° ENE
Cosmos 1869 Rocket 3.6 22:13:01 38° SSE 22:14:30 60° E 22:18:55 10° NNE
Cosmos 2360 Rocket 2.6 22:11:42 10° NNW 22:17:20 56° NE 22:20:19 27° ESE
SPOT 5 3.8 22:15:08 19° SSW 22:17:37 35° W 22:21:39 10° NNW
COSMOS 2428 4.3 22:13:04 10° NNW 22:17:59 28° NE 22:22:37 11° E
MTI 3.8 22:15:29 10° NNE 22:18:30 57° E 22:18:30 57° E
JB-3 4.2 22:15:18 10° NNE 22:19:19 82° ESE 22:20:44 39° S
ATLAS 3B R/B 3.5 22:21:13 25° SE 22:22:05 26° ESE 22:27:24 10° ENE
Cosmos 1703 Rocket 4.1 22:18:04 10° NNW 22:22:18 50° W 22:24:15 28° SSW
Geosat 3.9 22:20:48 35° SSE 22:23:01 89° WSW 22:28:05 10° NNW
Iridium 4 Rocket 3.0 22:21:45 41° SSE 22:23:10 72° E 22:27:23 10° N
Cosmos 2173 Rocket 3.9 22:21:11 29° S 22:24:31 72° E 22:30:39 10° NNE
Cosmos 1980 Rocket 3.8 22:20:51 10° NW 22:25:24 25° WSW 22:28:51 15° SSW
Cosmos 1500 3.0 22:25:10 55° SSE 22:25:51 72° E 22:29:36 10° NNE
Cosmos 405 Rocket 3.6 22:24:29 20° SW 22:26:40 43° WNW 22:30:15 10° N
SL-4 R/B 1.5 22:23:02 10° WSW 22:26:48 65° SSE 22:27:13 59° SE
USA 238 DEB 3.6 22:22:01 10° SW 22:28:42 84° SE 22:35:43 10° NE
Cosmos 1763 Rocket 4.0 22:23:36 10° NNW 22:28:47 53° WSW 22:31:09 30° SSW
USA 238 3.6 22:22:09 10° SW 22:28:48 83° SE 22:35:49 10° NE
ALOS 2 3.7 22:27:44 27° ESE 22:29:13 34° ENE 22:33:11 10° N
Cosmos 1725 Rocket 4.4 22:27:19 31° SE 22:29:56 48° E 22:35:58 10° NNE
Cosmos 1536 3.5 22:34:39 35° E 22:34:53 36° E 22:38:34 10° NNE
Cosmos 1666 3.1 22:37:32 44° E 22:37:37 44° E 22:41:13 10° NNE
Cosmos 2333 Rocket 3.2 22:32:16 10° NNW 22:37:42 40° NE 22:41:19 19° ESE
Cosmos 1271 Rocket 4.2 22:36:58 10° N 22:40:04 24° ENE 22:40:47 22° E
Cosmos 1356 4.2 22:41:30 38° ENE 22:41:30 38° ENE 22:44:23 10° NNE
Meteor 1-13 Rocket 4.1 22:35:35 10° NNW 22:41:11 89° WSW 22:43:23 38° S
Cosmos 2237 Rocket 4.3 22:37:09 10° NNW 22:41:25 21° NNE 22:45:40 10° E
Cosmos 2016 Rocket 4.0 22:39:51 34° SSE 22:42:46 69° E 22:49:06 10° NNE
Meteor 1-5 Rocket 4.3 22:40:38 32° S 22:43:34 81° E 22:49:32 10° NNE
Okean 1-7 4.2 22:39:37 10° NNW 22:43:35 35° W 22:45:21 24° SW
Lacrosse 4 Rocket 3.6 22:45:23 14° E 22:45:23 14° E 22:46:36 10° ENE
Cosmos 2061 Rocket 4.0 22:41:23 34° SSE 22:44:10 70° E 22:50:20 10° NNE
MOS 1-B Rocket 3.8 22:38:35 10° NNE 22:44:21 71° ESE 22:46:43 36° S
Cosmos 2221 Rocket 3.5 22:40:49 10° N 22:45:18 90° NW 22:46:29 50° S
Cosmos 1459 Rocket 4.0 22:42:36 28° SSW 22:46:11 84° W 22:52:36 10° N
Okean 3 3.6 22:45:11 10° NNW 22:49:27 68° W 22:50:30 48° SSW
FALCON 9 DEB 4.1 22:46:34 10° WSW 22:48:49 37° WSW 22:48:49 37° WSW
Cosmos 1867 4.3 22:44:57 10° WSW 22:50:18 55° NW 22:55:42 10° NE
Cosmos 1733 Rocket 3.4 22:50:59 45° ESE 22:51:35 48° E 22:55:51 10° NNE
Cosmos 1066 Rocket 4.3 22:45:53 10° N 22:51:40 69° ENE 22:53:46 39° SE
SL-27 R/B 2.3 22:53:08 76° W 22:53:13 77° WNW 22:56:34 10° NNE
Meteor 1-23 Rocket 4.4 22:47:37 10° N 22:53:28 69° ENE 22:55:42 38° SE
Thor Agena Rocket 3.5 22:50:31 10° NNE 22:55:35 63° ESE 22:57:00 44° SSE
Cosmos 1864 Rocket 4.5 22:53:22 37° S 22:55:58 72° E 23:02:12 10° NNE
CENTAUR R/B 2.5 22:51:50 16° SW 22:56:50 80° SE 23:04:10 10° NE
Cosmos 1850 Rocket 4.3 22:54:34 21° SW 22:58:09 65° WNW 23:03:25 10° NNE
Meteor 2-4 Rocket 4.4 22:53:00 10° NNW 22:58:25 45° W 23:00:58 27° SSW
Cosmos 44 3.6 22:55:40 10° NW 23:00:26 55° SW 23:01:33 45° S
Cosmos 1802 Rocket 4.1 22:58:41 30° SSW 23:02:05 79° W 23:08:29 10° N
Spot 4 4.0 23:06:33 45° SSW 23:07:52 64° WSW 23:12:41 10° NNW
Cosmos 1378 3.3 23:08:38 10° N 23:12:21 59° ENE 23:12:29 59° E
USA 267 3.7 23:08:29 10° ENE 23:14:56 63° N 23:21:23 10° W
Cosmos 2233 Rocket 4.1 23:14:31 40° SSE 23:16:50 67° E 23:23:08 10° NNE
Cosmos 1908 Rocket 4.3 23:18:33 37° ESE 23:18:52 37° E 23:22:56 10° NNE
Cosmos 841 Rocket 4.4 23:15:56 10° NW 23:20:42 37° WSW 23:22:05 31° SW
Cosmos 540 Rocket 4.3 23:17:09 10° NW 23:21:53 37° WSW 23:23:10 32° SW
NOSS 3-2 (A) 4.1 23:17:39 10° WSW 23:23:32 57° NNW 23:30:22 10° NE
SL-16 R/B 3.4 23:19:44 10° NW 23:24:30 28° WSW 23:26:08 24° SW
Lacrosse 5 3.0 23:20:31 10° WNW 23:24:41 28° SW 23:24:41 28° SW
Cosmos 2322 3.6 23:21:57 10° NNW 23:27:41 89° WSW 23:29:30 45° SSE
Cosmos 1378 Rocket 3.5 23:23:39 10° N 23:28:09 89° WSW 23:28:49 65° S
NOSS 3-2 (C) 3.7 23:23:23 10° SW 23:29:17 71° NW 23:36:10 10° NE
Cosmos 1833 4.2 23:28:45 47° S 23:30:10 63° ESE 23:35:47 10° NE
COSMOS 2487 3.1 23:32:14 45° ENE 23:32:14 45° ENE 23:34:54 10° NNE
GENESIS II 4.2 23:30:16 10° NW 23:34:18 77° NE 23:34:38 70° E
Cosmos 2219 Rocket 2.2 23:30:30 10° NNW 23:36:14 78° ENE 23:38:19 41° SE
Cosmos 2084 Rocket 3.4 23:35:29 51° WSW 23:36:32 80° NW 23:40:53 10° NE
Tsikada Rocket 4.4 23:31:03 10° NNW 23:37:17 57° W 23:39:45 35° SSW
Cosmos 2082 Rocket 4.5 23:34:20 10° W 23:38:48 23° NW 23:43:17 10° NNE
EO 1 Del DPAF 3.6 23:35:50 10° N 23:39:31 55° WNW 23:39:56 52° W
Terra 4.4 23:40:46 10° W 23:41:24 10° W 23:42:02 10° WNW
Cosmos 1975 Rocket 3.7 23:37:09 10° N 23:41:31 47° ENE 23:42:25 41° ESE
Cosmos 2333 4.2 23:36:17 10° NNW 23:42:05 73° WSW 23:43:44 47° S
Cosmos 1242 Rocket 3.6 23:43:00 10° NNW 23:46:07 35° W 23:46:07 35° W
Cosmos 2322 Rocket 3.6 23:42:15 10° NW 23:46:40 24° WSW 23:48:01 22° WSW
YAOGAN 11 4.3 23:48:26 53° SE 23:49:22 70° ENE 23:53:58 10° N
ERBS 3.4 23:47:01 10° WNW 23:50:13 43° NNE 23:51:02 35° NE
Helios 1A 2.9 23:49:48 69° SE 23:50:16 82° ENE 23:54:31 10° NNW
SL-16 R/B 4.2 23:47:06 10° NNW 23:51:45 25° NE 23:56:23 10° E
SL-16 R/B 4.3 23:47:13 10° ESE 23:52:09 25° NE 23:57:06 10° N
Cosmos 1486 Rocket 3.9 23:52:11 54° S 23:53:17 71° ESE 23:58:29 10° NNE
Cosmos 1544 3.4 23:54:38 57° ENE 23:54:38 57° ENE 23:57:58 10° NNE
Meteor 1-11 Rocket 4.5 23:51:38 27° SW 23:54:22 46° WNW 23:59:55 10° N
